User: anonymous   Login
Location: Haulchin
(50.3172°N, 3.4360°E)
Time: 07:04:37
(UTC+00:00)
Language:

COBE Rocket - Orbit

View from above orbital plane
View from above orbital plane
View from above satellite
View from above satellite

Ground track
Ground track

The orbit data is extracted from the following two-line orbital elements,

1 20323U 89089B   24205.78700321  .00001008  00000-0  26362-3 0  9996
2 20323  97.1159 134.8141 0069736 195.6203 164.2843 14.49597852809653
Epoch (UTC): 23 July 2024 18:53:17
Eccentricity: 0.0069736
inclination: 97.1159°
perigee height: 677 km
apogee height: 776 km
right ascension of ascending node: 134.8141°
argument of perigee: 195.6203°
revolutions per day: 14.49597852
mean anomaly at epoch: 164.2843°
orbit number at epoch: 80965

The dashed part of the orbit path shows where the satellite is in the earth's shadow,  

DLR